Regional Weather Roundup
Issued by NWS Little Rock, AR

Home | Current Version | Previous Version | Text Only | Print | Product List | Glossary On
Versions: 1 2 3 4 5 6 7 8 9 10 11 12 13 14 15 16 17 18 19 20 21 22 23 24 25 26 27 28 29 30 31 32 33 34 35 36 37 38 39 40 41 42 43 44 45 46 47 48 49 50
661
ASUS44 KLZK 241212
RWRLZK

WEATHER ROUNDUP FOR ARKANSAS
NATIONAL WEATHER SERVICE LITTLE ROCK AR
700 AM CDT MON APR 24 2017

NOTE: "FAIR" INDICATES FEW OR NO CLOUDS BELOW 12,000 FEET WITH NO
SIGNIFICANT WEATHER AND/OR OBSTRUCTIONS TO VISIBILITY.

ARZ001-003-010-029-241300-
NORTHWEST ARKANSAS

CITY           SKY/WX    TMP DP  RH WIND       PRES   REMARKS
FAYETTEVILLE   CLEAR     35  35 100 CALM      30.00R
6HR MIN TEMP:  35; 6HR MAX TEMP:  42;

FORT SMITH     CLEAR     44  41  89 CALM      29.99R
6HR MIN TEMP:  44; 6HR MAX TEMP:  52;

HARRISON       CLEAR     45  35  68 W6        29.98S
6HR MIN TEMP:  39; 6HR MAX TEMP:  50;

BENTONVILLE    CLEAR     39  36  87 CALM      29.99R
6HR MIN TEMP:  39; 6HR MAX TEMP:  46;

ROGERS         CLEAR     41  40  96 CALM      29.99S
6HR MIN TEMP:  39; 6HR MAX TEMP:  46;

SILOAM SPGS    CLEAR     41  36  81 E3        29.97F
6HR MIN TEMP:  39; 6HR MAX TEMP:  45;

HIGHFILL       CLEAR     39  38  96 CALM      29.98S
6HR MIN TEMP:  38; 6HR MAX TEMP:  44;

SPRINGDALE     CLEAR     39  39 100 CALM      30.00S
$$

ARZ004-005-016-241300-
NORTH CENTRAL ARKANSAS

CITY           SKY/WX    TMP DP  RH WIND       PRES   REMARKS
BATESVILLE     CLEAR    N/A N/A N/A W5        29.96R
FLIPPIN        CLEAR     39  34  81 CALM      29.96R
6HR MIN TEMP:  37; 6HR MAX TEMP:  45;

MTN HOME       CLEAR     41  41 100 N3        29.97R
6HR MIN TEMP:  40; 6HR MAX TEMP:  52;

$$

ARZ040-041-241300-
WEST CENTRAL ARKANSAS

CITY           SKY/WX    TMP DP  RH WIND       PRES   REMARKS
MENA           CLEAR     41  39  93 CALM      30.00R
MOUNT IDA      CLEAR     40  38  93 CALM      29.97R
6HR MIN TEMP:  40; 6HR MAX TEMP:  46;

$$

ARZ009-017-025-026-028-241300-
NORTHEAST ARKANSAS

CITY           SKY/WX    TMP DP  RH WIND       PRES   REMARKS
CORNING        FAIR      48  39  71 N6        29.94R
JONESBORO      CLEAR     50  38  63 N6        29.92R
6HR MIN TEMP:  49; 6HR MAX TEMP:  56;

NEWPORT        CLEAR     47  39  74 NW8       29.94R
6HR MIN TEMP:  44; 6HR MAX TEMP:  50;

WALNUT RIDGE   CLEAR     46  36  66 NW8       29.94R
6HR MIN TEMP:  45; 6HR MAX TEMP:  52;

BLYTHEVILLE    CLEAR     47  45  93 N7        29.91R
6HR MIN TEMP:  45; 6HR MAX TEMP:  50;

$$

ARZ022-023-033-042-044-241300-
CENTRAL ARKANSAS

CITY           SKY/WX    TMP DP  RH WIND       PRES   REMARKS
LITTLE ROCK    PTCLDY    48  45  89 W3        29.96R
6HR MIN TEMP:  45; 6HR MAX TEMP:  53;

N LITTLE ROCK    N/A     51  42  73 NW6       29.97R
6HR MIN TEMP:  49; 6HR MAX TEMP:  53;

JACKSONVILLE   CLEAR     44  42  95 SW6       29.95R
6HR MIN TEMP:  43; 6HR MAX TEMP:  47;

CONWAY           N/A     46  45  93 MISG      29.97R
SEARCY         CLEAR     46  42  86 NW3       29.96R
6HR MIN TEMP:  43; 6HR MAX TEMP:  51;

HOT SPRINGS    CLEAR     46  44  93 W3        29.98R
6HR MIN TEMP:  44; 6HR MAX TEMP:  50;

RUSSELLVILLE   CLEAR     41  40  96 CALM      29.99R
6HR MIN TEMP:  40; 6HR MAX TEMP:  46;

$$

ARZ036-241300-
EAST ARKANSAS

CITY           SKY/WX    TMP DP  RH WIND       PRES   REMARKS
WEST MEMPHIS   CLEAR     49  46  90 NW6       29.90R
6HR MIN TEMP:  47; 6HR MAX TEMP:  53;

$$

ARZ050-053-066-070-073-241300-
SOUTHWEST ARKANSAS

CITY           SKY/WX    TMP DP  RH WIND       PRES   REMARKS
ARKADELPHIA    FAIR      45  45 100 CALM      29.99R FOG
6HR MIN TEMP:  45; 6HR MAX TEMP:  50;

CAMDEN         FOG       43  41  93 CALM      29.97R VSB 1/4
TEXARKANA      CLEAR     45  44  97 CALM      29.98R
6HR MIN TEMP:  44; 6HR MAX TEMP:  52;

EL DORADO      CLEAR     47  43  86 CALM      29.97R
6HR MIN TEMP:  44; 6HR MAX TEMP:  49;

DE QUEEN       FOG       42  42 100 CALM      29.97R VSB 3/4
6HR MIN TEMP:  42; 6HR MAX TEMP:  47;

$$

ARZ056-057-069-241300-
SOUTHEAST ARKANSAS

CITY           SKY/WX    TMP DP  RH WIND       PRES   REMARKS
PINE BLUFF     CLEAR     49  43  80 CALM      29.95R
6HR MIN TEMP:  47; 6HR MAX TEMP:  51;

STUTTGART      CLEAR     50  37  62 NW6       29.95R
6HR MIN TEMP:  48; 6HR MAX TEMP:  54;

MONTICELLO     CLEAR     51  44  77 W7        29.94R
6HR MIN TEMP:  46; 6HR MAX TEMP:  51;


$$






USA.gov is the U.S. government's official web portal to all federal, state and local government web resources and services.